TimeCDT,TemperatureF,Dew PointF,Humidity,Sea Level PressureIn,VisibilityMPH,Wind Direction,Wind SpeedMPH,Gust SpeedMPH,PrecipitationIn,Events,Conditions,WindDirDegrees,DateUTC
12:54 AM,64.0,62.1,93,29.68,10.0,WSW,4.6,-,N/A,,Clear,240,2013-06-30 05:54:00
1:37 AM,64.4,62.6,94,29.70,10.0,SW,5.8,-,N/A,,Scattered Clouds,220,2013-06-30 06:37:00
1:44 AM,64.4,62.6,94,29.70,10.0,WSW,5.8,-,N/A,,Mostly Cloudy,250,2013-06-30 06:44:00
1:54 AM,64.9,64.0,97,29.70,10.0,WSW,3.5,-,N/A,,Overcast,250,2013-06-30 06:54:00
2:54 AM,66.0,64.0,93,29.68,10.0,Calm,Calm,-,N/A,,Overcast,0,2013-06-30 07:54:00
3:43 AM,66.2,64.4,94,29.69,10.0,Calm,Calm,-,N/A,,Overcast,0,2013-06-30 08:43:00
3:54 AM,66.0,64.0,93,29.68,10.0,Variable,3.5,-,N/A,,Overcast,0,2013-06-30 08:54:00
4:37 AM,66.2,64.4,94,29.70,9.0,NNW,3.5,-,N/A,,Overcast,340,2013-06-30 09:37:00
4:54 AM,66.0,64.0,93,29.70,9.0,Calm,Calm,-,N/A,,Overcast,0,2013-06-30 09:54:00
5:28 AM,66.2,64.4,94,29.72,9.0,WNW,3.5,-,N/A,,Overcast,300,2013-06-30 10:28:00
5:46 AM,66.2,64.4,94,29.72,7.0,NNW,3.5,-,N/A,,Overcast,330,2013-06-30 10:46:00
5:54 AM,66.9,64.0,90,29.72,7.0,NNW,4.6,-,N/A,,Overcast,340,2013-06-30 10:54:00
6:44 AM,66.2,64.4,94,29.74,8.0,Calm,Calm,-,N/A,,Overcast,0,2013-06-30 11:44:00
6:52 AM,66.2,64.4,94,29.75,9.0,Calm,Calm,-,N/A,,Overcast,0,2013-06-30 11:52:00
6:54 AM,66.9,64.0,90,29.74,9.0,NW,3.5,-,N/A,,Overcast,320,2013-06-30 11:54:00
7:10 AM,66.2,64.4,94,29.75,9.0,Calm,Calm,-,N/A,,Overcast,0,2013-06-30 12:10:00
7:54 AM,69.1,64.0,84,29.75,6.0,Calm,Calm,-,N/A,,Haze,0,2013-06-30 12:54:00
7:57 AM,69.8,64.4,83,29.76,10.0,WNW,3.5,-,N/A,,Overcast,300,2013-06-30 12:57:00
8:07 AM,69.8,64.4,83,29.76,10.0,NW,6.9,-,N/A,,Overcast,320,2013-06-30 13:07:00
8:54 AM,71.1,66.0,84,29.76,10.0,NW,8.1,-,N/A,,Overcast,320,2013-06-30 13:54:00
9:01 AM,71.6,64.4,78,29.77,10.0,NW,8.1,-,N/A,,Overcast,310,2013-06-30 14:01:00
9:54 AM,71.1,64.9,81,29.77,10.0,NW,5.8,-,N/A,,Overcast,310,2013-06-30 14:54:00
10:11 AM,71.6,64.4,78,29.78,10.0,NNW,5.8,-,N/A,,Overcast,330,2013-06-30 15:11:00
10:54 AM,73.9,64.9,73,29.77,10.0,NW,6.9,-,N/A,,Overcast,310,2013-06-30 15:54:00
11:54 AM,75.9,64.9,69,29.77,10.0,NW,9.2,-,N/A,,Mostly Cloudy,320,2013-06-30 16:54:00
12:54 PM,75.9,66.0,71,29.77,10.0,WNW,12.7,-,N/A,,Mostly Cloudy,300,2013-06-30 17:54:00
1:01 PM,77.0,66.2,69,29.78,10.0,NW,11.5,-,N/A,,Partly Cloudy,320,2013-06-30 18:01:00
1:54 PM,78.1,66.0,66,29.76,10.0,WNW,11.5,-,N/A,,Mostly Cloudy,300,2013-06-30 18:54:00
2:07 PM,75.2,64.4,69,29.77,10.0,North,12.7,-,N/A,,Overcast,10,2013-06-30 19:07:00
2:22 PM,73.4,64.4,73,29.78,10.0,NW,10.4,-,N/A,,Overcast,320,2013-06-30 19:22:00
2:54 PM,71.1,66.0,84,29.78,8.0,ENE,10.4,-,0.03,Rain,Light Rain,70,2013-06-30 19:54:00
3:06 PM,69.8,62.6,78,29.79,10.0,East,8.1,-,0.00,,Overcast,80,2013-06-30 20:06:00
3:22 PM,69.8,64.4,83,29.79,10.0,NE,9.2,-,0.00,Rain,Light Rain,50,2013-06-30 20:22:00
3:54 PM,68.0,64.9,90,29.79,2.5,North,5.8,-,0.06,Rain,Rain,10,2013-06-30 20:54:00
4:09 PM,69.8,64.4,83,29.79,3.0,Calm,Calm,-,0.02,Rain,Rain,0,2013-06-30 21:09:00
4:54 PM,70.0,66.0,87,29.79,6.0,NE,4.6,-,0.04,Rain,Light Rain,40,2013-06-30 21:54:00
5:54 PM,70.0,66.0,87,29.78,10.0,North,4.6,-,0.04,,Mostly Cloudy,360,2013-06-30 22:54:00
6:54 PM,71.1,66.9,87,29.80,8.0,Calm,Calm,-,0.00,,Mostly Cloudy,0,2013-06-30 23:54:00
7:02 PM,71.6,66.2,83,29.80,10.0,NE,5.8,-,N/A,,Overcast,50,2013-07-01 00:02:00
7:18 PM,71.6,66.2,83,29.81,10.0,North,3.5,-,N/A,,Mostly Cloudy,10,2013-07-01 00:18:00
7:54 PM,70.0,66.9,90,29.80,10.0,Calm,Calm,-,N/A,,Overcast,0,2013-07-01 00:54:00
8:54 PM,70.0,66.9,90,29.81,10.0,Calm,Calm,-,N/A,,Overcast,0,2013-07-01 01:54:00
9:10 PM,69.8,66.2,88,29.82,10.0,Calm,Calm,-,N/A,,Overcast,0,2013-07-01 02:10:00
9:18 PM,69.8,66.2,88,29.82,10.0,North,3.5,-,N/A,,Overcast,360,2013-07-01 02:18:00
9:54 PM,69.1,64.9,87,29.83,10.0,North,4.6,-,0.00,Rain,Light Rain,360,2013-07-01 02:54:00
10:07 PM,68.0,64.4,88,29.84,10.0,NNE,6.9,-,0.00,Rain,Light Rain,20,2013-07-01 03:07:00
10:54 PM,68.0,64.9,90,29.83,10.0,NNE,3.5,-,0.00,,Mostly Cloudy,20,2013-07-01 03:54:00
11:54 PM,66.9,64.0,90,29.83,10.0,North,4.6,-,N/A,,Mostly Cloudy,350,2013-07-01 04:54:00